PAA8PZ LYBE-LROP

Flight info

Callsign PAA8PZ
Flight time 0h 45m
Altitude 35000
Route DONIV L5 VELIP DCT TOSVI
Aircraft L101/H-SDFGHIRWXY/S

Departure

Time 2026-04-30 12:46
Airport Belgrade Nikola Tesla Airport (LYBE)

Arrival

Time 2026-04-30 13:31
Airport Bucharest Henri Coandă International Airport (LROP)
Time Latitude Longitude Altitude Speed Heading
2026-04-30 12:12 44.82130 20.29162 312 ft 0 kts 245°
2026-04-30 12:32 44.82130 20.29163 312 ft 0 kts 245°
2026-04-30 12:32 44.82101 20.29232 310 ft 0 kts 212°
2026-04-30 12:35 44.82052 20.29384 313 ft 0 kts 302°
2026-04-30 12:39 44.82053 20.29382 339 ft 1 kts 311°
2026-04-30 12:40 44.82063 20.29381 314 ft 1 kts
2026-04-30 12:40 44.82069 20.29388 314 ft 2 kts 42°
2026-04-30 12:40 44.82078 20.29421 312 ft 5 kts 73°
2026-04-30 12:40 44.82086 20.29484 312 ft 8 kts 70°
2026-04-30 12:41 44.82108 20.29573 314 ft 11 kts 93°
2026-04-30 12:41 44.82072 20.29686 315 ft 15 kts 120°
2026-04-30 12:41 44.82010 20.29827 312 ft 19 kts 121°
2026-04-30 12:41 44.81937 20.29993 312 ft 22 kts 122°
2026-04-30 12:42 44.81850 20.30189 312 ft 26 kts 121°
2026-04-30 12:42 44.81751 20.30414 313 ft 25 kts 123°
2026-04-30 12:42 44.81685 20.30560 314 ft 20 kts 122°
2026-04-30 12:42 44.81604 20.30740 312 ft 24 kts 122°
2026-04-30 12:43 44.81513 20.30957 311 ft 27 kts 125°
2026-04-30 12:43 44.81419 20.31159 311 ft 16 kts 120°
2026-04-30 12:43 44.81353 20.31310 311 ft 20 kts 121°
2026-04-30 12:43 44.81274 20.31487 312 ft 19 kts 122°
2026-04-30 12:44 44.81198 20.31660 312 ft 22 kts 122°
2026-04-30 12:44 44.81112 20.31854 311 ft 25 kts 122°
2026-04-30 12:44 44.81029 20.32043 311 ft 21 kts 121°
2026-04-30 12:44 44.80994 20.32157 310 ft 13 kts 91°
2026-04-30 12:45 44.81047 20.32275 313 ft 16 kts 28°
2026-04-30 12:45 44.81159 20.32299 313 ft 17 kts 358°
2026-04-30 12:45 44.81245 20.32253 313 ft 11 kts 309°
2026-04-30 12:45 44.81289 20.32157 314 ft 16 kts 301°
2026-04-30 12:46 44.81531 20.31625 311 ft 118 kts 302°
2026-04-30 12:46 44.82112 20.30318 690 ft 178 kts 304°
2026-04-30 12:46 44.82780 20.28738 1911 ft 198 kts 304°
2026-04-30 12:46 44.83530 20.26994 3161 ft 217 kts 304°
2026-04-30 12:47 44.84309 20.25211 4468 ft 202 kts 305°
2026-04-30 12:47 44.84793 20.24104 4871 ft 200 kts 305°
2026-04-30 12:47 44.85539 20.22395 5257 ft 219 kts 305°
2026-04-30 12:47 44.86378 20.20495 6275 ft 237 kts 305°
2026-04-30 12:48 44.87240 20.18553 7298 ft 222 kts 305°
2026-04-30 12:48 44.88468 20.15816 7922 ft 280 kts 306°
2026-04-30 12:48 44.89202 20.14212 8260 ft 303 kts 306°
2026-04-30 12:48 44.90457 20.11735 9363 ft 311 kts 316°
2026-04-30 12:49 44.92131 20.09931 10945 ft 298 kts 335°
2026-04-30 12:49 44.94096 20.08997 12130 ft 304 kts 353°
2026-04-30 12:49 44.96283 20.09086 12552 ft 332 kts 13°
2026-04-30 12:49 44.98483 20.10494 12646 ft 366 kts 35°
2026-04-30 12:50 45.00288 20.13191 13139 ft 390 kts 55°
2026-04-30 12:50 45.01324 20.16778 14124 ft 400 kts 75°
2026-04-30 12:50 45.01446 20.20677 15523 ft 394 kts 92°
2026-04-30 12:50 45.00988 20.24422 17328 ft 382 kts 99°
2026-04-30 12:51 45.00351 20.28091 18568 ft 389 kts 102°
2026-04-30 12:51 44.99650 20.31901 19017 ft 412 kts 102°
2026-04-30 12:51 44.98909 20.35947 19252 ft 437 kts 102°
2026-04-30 12:51 44.98161 20.40072 19973 ft 444 kts 102°
2026-04-30 12:52 44.97396 20.44285 21417 ft 434 kts 102°
2026-04-30 12:52 44.96644 20.48404 22688 ft 434 kts 102°
2026-04-30 12:52 44.95880 20.52597 23243 ft 449 kts 102°
2026-04-30 12:52 44.95094 20.56928 23746 ft 462 kts 102°
2026-04-30 12:53 44.94293 20.61329 24773 ft 459 kts 102°
2026-04-30 12:53 44.93492 20.65704 25562 ft 464 kts 102°
2026-04-30 12:53 44.92669 20.70205 25776 ft 482 kts 102°
2026-04-30 12:53 44.91816 20.74878 25889 ft 500 kts 102°
2026-04-30 12:54 44.90937 20.79673 26184 ft 511 kts 102°
2026-04-30 12:54 44.90041 20.84528 27163 ft 507 kts 103°
2026-04-30 12:54 44.89149 20.89330 28028 ft 507 kts 103°
2026-04-30 12:54 44.88250 20.94152 28859 ft 508 kts 103°
2026-04-30 12:55 44.87350 20.98974 29736 ft 508 kts 103°
2026-04-30 12:55 44.86462 21.03735 30416 ft 512 kts 104°
2026-04-30 12:55 44.85550 21.08623 30925 ft 516 kts 104°
2026-04-30 12:55 44.84634 21.13513 31633 ft 516 kts 104°
2026-04-30 12:56 44.83717 21.18399 32306 ft 517 kts 104°
2026-04-30 12:56 44.82792 21.23313 32980 ft 518 kts 104°
2026-04-30 12:56 44.81867 21.28216 33652 ft 519 kts 104°
2026-04-30 12:56 44.80938 21.33136 34262 ft 520 kts 104°
2026-04-30 12:57 44.80008 21.38056 34811 ft 520 kts 104°
2026-04-30 12:57 44.79071 21.43004 34993 ft 523 kts 104°
2026-04-30 12:57 44.78146 21.47944 35137 ft 522 kts 102°
2026-04-30 12:57 44.77615 21.52990 35168 ft 520 kts 90°
2026-04-30 12:58 44.77656 21.63156 35228 ft 520 kts 90°
2026-04-30 12:58 44.77294 21.73318 35231 ft 520 kts 92°
2026-04-30 12:59 44.76920 21.83459 35234 ft 523 kts 92°
2026-04-30 12:59 44.76550 21.93687 35241 ft 524 kts 92°
2026-04-30 13:00 44.76166 22.03914 35240 ft 524 kts 92°
2026-04-30 13:00 44.75772 22.14174 35253 ft 524 kts 92°
2026-04-30 13:01 44.75369 22.24436 35265 ft 525 kts 93°
2026-04-30 13:01 44.74958 22.34683 35262 ft 524 kts 93°
2026-04-30 13:02 44.74541 22.44842 35265 ft 523 kts 93°
2026-04-30 13:02 44.74112 22.55066 35268 ft 523 kts 93°
2026-04-30 13:03 44.73674 22.65315 35270 ft 526 kts 94°
2026-04-30 13:03 44.73224 22.75606 35271 ft 527 kts 94°
2026-04-30 13:04 44.72764 22.85899 35274 ft 527 kts 94°
2026-04-30 13:04 44.72299 22.96124 35272 ft 527 kts 94°
2026-04-30 13:05 44.71821 23.06417 35277 ft 527 kts 94°
2026-04-30 13:06 44.71088 23.21828 35274 ft 527 kts 94°
2026-04-30 13:06 44.70586 23.32125 35283 ft 527 kts 94°
2026-04-30 13:07 44.70075 23.42446 35282 ft 529 kts 94°
2026-04-30 13:07 44.69557 23.52699 35297 ft 530 kts 94°
2026-04-30 13:08 44.69026 23.63034 35280 ft 528 kts 94°
2026-04-30 13:08 44.68488 23.73334 35277 ft 528 kts 95°
2026-04-30 13:09 44.67943 23.83588 35287 ft 530 kts 95°
2026-04-30 13:09 44.67382 23.93980 35278 ft 531 kts 95°
2026-04-30 13:10 44.66817 24.04260 35281 ft 531 kts 95°
2026-04-30 13:10 44.66240 24.14612 34911 ft 531 kts 95°
2026-04-30 13:10 44.65951 24.19754 34306 ft 523 kts 96°
2026-04-30 13:11 44.65663 24.24843 33627 ft 520 kts 96°
2026-04-30 13:11 44.65376 24.29864 32962 ft 522 kts 96°
2026-04-30 13:11 44.65081 24.34969 32309 ft 524 kts 97°
2026-04-30 13:11 44.64785 24.40068 31675 ft 526 kts 97°
2026-04-30 13:12 44.64484 24.45207 31053 ft 529 kts 97°
2026-04-30 13:12 44.64179 24.50368 30446 ft 531 kts 98°
2026-04-30 13:12 44.63871 24.55553 29716 ft 536 kts 98°
2026-04-30 13:13 44.63235 24.66048 28312 ft 541 kts 98°
2026-04-30 13:13 44.62916 24.71245 27643 ft 542 kts 98°
2026-04-30 13:13 44.62262 24.81820 26387 ft 542 kts 98°
2026-04-30 13:14 44.61931 24.87109 25754 ft 543 kts 98°
2026-04-30 13:14 44.61599 24.92377 25081 ft 543 kts 99°
2026-04-30 13:14 44.60978 25.02465 23830 ft 494 kts 99°
2026-04-30 13:15 44.60683 25.07197 23121 ft 480 kts 99°
2026-04-30 13:15 44.60090 25.16309 21628 ft 463 kts 99°
2026-04-30 13:15 44.59797 25.20773 20818 ft 453 kts 98°
2026-04-30 13:16 44.59513 25.25113 20617 ft 446 kts 98°
2026-04-30 13:16 44.59226 25.29430 19869 ft 441 kts 98°
2026-04-30 13:16 44.58945 25.33654 18997 ft 428 kts 98°
2026-04-30 13:17 44.58405 25.41764 17141 ft 405 kts 97°
2026-04-30 13:17 44.58146 25.45633 16222 ft 393 kts 97°
2026-04-30 13:17 44.57729 25.51829 14697 ft 375 kts 97°
2026-04-30 13:18 44.57421 25.56463 13095 ft 338 kts 98°
2026-04-30 13:18 44.56991 25.62637 10808 ft 306 kts 96°
2026-04-30 13:18 44.56785 25.65528 9653 ft 297 kts 95°
2026-04-30 13:19 44.56583 25.68363 8457 ft 284 kts 94°
2026-04-30 13:19 44.56400 25.71020 7298 ft 266 kts 95°
2026-04-30 13:19 44.56271 25.73513 6130 ft 249 kts 86°
2026-04-30 13:19 44.56687 25.75779 4875 ft 237 kts 58°
2026-04-30 13:20 44.57859 25.77334 3705 ft 233 kts 31°
2026-04-30 13:20 44.59360 25.78022 2649 ft 223 kts 13°
2026-04-30 13:20 44.60905 25.77810 2380 ft 224 kts 344°
2026-04-30 13:20 44.62301 25.76835 2603 ft 226 kts 348°
2026-04-30 13:21 44.63815 25.76544 2723 ft 222 kts 357°
2026-04-30 13:21 44.65274 25.75693 2638 ft 236 kts 327°
2026-04-30 13:21 44.66288 25.73818 2548 ft 250 kts 296°
2026-04-30 13:22 44.65922 25.69044 2492 ft 258 kts 233°
2026-04-30 13:22 44.64610 25.67394 2493 ft 252 kts 203°
2026-04-30 13:22 44.61260 25.66458 2510 ft 245 kts 178°
2026-04-30 13:23 44.59579 25.66531 2459 ft 239 kts 159°
2026-04-30 13:23 44.57303 25.69024 2562 ft 194 kts 120°
2026-04-30 13:24 44.55827 25.72144 2493 ft 193 kts 117°
2026-04-30 13:24 44.55058 25.75383 2495 ft 158 kts 81°
2026-04-30 13:25 44.55312 25.78209 2498 ft 132 kts 80°
2026-04-30 13:25 44.55509 25.80605 2492 ft 121 kts 79°
2026-04-30 13:26 44.55805 25.84371 2483 ft 134 kts 80°
2026-04-30 13:26 44.55998 25.86928 2485 ft 132 kts 79°
2026-04-30 13:27 44.56198 25.89492 2493 ft 133 kts 79°
2026-04-30 13:28 44.56496 25.93387 2475 ft 135 kts 79°
2026-04-30 13:28 44.56695 25.96000 2172 ft 134 kts 81°
2026-04-30 13:28 44.56785 25.97281 1978 ft 133 kts 79°
2026-04-30 13:29 44.56996 25.99888 1620 ft 134 kts 79°
2026-04-30 13:29 44.57198 26.02491 1222 ft 136 kts 79°
2026-04-30 13:30 44.57489 26.06415 585 ft 130 kts 82°
2026-04-30 13:31 44.57695 26.08925 335 ft 125 kts 79°
2026-04-30 13:31 44.57835 26.10841 318 ft 23 kts 100°
2026-04-30 13:32 44.57771 26.11103 316 ft 8 kts 113°
2026-04-30 13:32 44.57734 26.11164 317 ft 4 kts 176°
2026-04-30 13:33 44.57694 26.11093 316 ft 7 kts 256°
2026-04-30 13:33 44.57673 26.10847 318 ft 15 kts 264°
2026-04-30 13:34 44.57659 26.10649 322 ft 14 kts 264°
2026-04-30 13:34 44.57632 26.10291 324 ft 16 kts 264°
2026-04-30 13:35 44.57620 26.10130 326 ft 16 kts 264°
2026-04-30 13:35 44.57595 26.09802 322 ft 19 kts 264°
2026-04-30 13:36 44.57565 26.09406 319 ft 22 kts 263°
2026-04-30 13:36 44.57551 26.09235 320 ft 13 kts 263°
2026-04-30 13:36 44.57531 26.08972 324 ft 14 kts 264°
2026-04-30 13:37 44.57521 26.08844 326 ft 12 kts 263°
2026-04-30 13:37 44.57503 26.08608 326 ft 11 kts 264°
2026-04-30 13:38 44.57414 26.08475 323 ft 12 kts 178°
2026-04-30 13:38 44.57328 26.08489 325 ft 12 kts 174°
2026-04-30 13:38 44.57232 26.08415 321 ft 9 kts 262°
2026-04-30 13:39 44.57177 26.08293 320 ft 7 kts 219°
2026-04-30 13:39 44.57130 26.08240 318 ft 0 kts 219°